Regional Weather Roundup
Issued by NWS Green Bay, WI

Home | Current Version | Previous Version | Text Only | Print | Product List | Glossary On
Versions: 1 2 3 4 5 6 7 8 9 10 11 12 13 14 15 16 17 18 19 20 21 22 23 24 25 26 27 28 29 30 31 32 33 34 35 36 37 38 39 40 41 42 43 44 45 46 47 48 49 50
000
ASUS43 KGRB 220859
RWRGRB

NORTH-CENTRAL AND NORTHEAST WISCONSIN REGIONAL WEATHER ROUNDUP
NATIONAL WEATHER SERVICE GREEN BAY WI
400 AM CDT FRI AUG 22 2014

WIZ005-009-010>012-018-019-221000-
NORTH CENTRAL WISCONSIN

CITY           SKY/WX    TMP DP  RH WIND       PRES   REMARKS
IRONWOOD       CLOUDY    66  64  94 SE5       29.88F
MANITOWISH WTR NOT AVBL
ARBOR VITAE    NOT AVBL
EAGLE RIVER    NOT AVBL
LAND O LAKES   NOT AVBL
RHINELANDER    CLOUDY    63  63 100 E6        29.93F FOG
PHILLIPS       CLOUDY    65  65  99 SE3       29.90S FOG
ANTIGO         NOT AVBL
TOMAHAWK       NOT AVBL
MERRILL        NOT AVBL
$$

WIZ013-073-221000-
NORTHEAST WISCONSIN

CITY           SKY/WX    TMP DP  RH WIND       PRES   REMARKS
IRON MOUNTAIN  CLOUDY    63  61  93 E5        29.93F
MARINETTE      CLOUDY    66  63  88 E6        29.90F
$$

WIZ017-030-035>037-045-221000-
CENTRAL WISCONSIN

CITY           SKY/WX    TMP DP  RH WIND       PRES   REMARKS
MEDFORD        NOT AVBL
WAUSAU         FOG       65  65 100 SE5       29.89F VSB 1/4
MOSINEE        NOT AVBL
MARSHFIELD     CLOUDY    70  69  97 E5        29.90R FOG
WISC RAPIDS    CLOUDY    70  70 100 E3        29.90S FOG
STEVENS POINT  NOT AVBL
WAUPACA        NOT AVBL
SHAWANO        CLOUDY    68  65  91 E5        29.91F FOG
CLINTONVILLE   NOT AVBL
$$

WIZ038-039-048-051-221000-
FOX VALLEY

CITY           SKY/WX    TMP DP  RH WIND       PRES   REMARKS
NWS GREEN BAY  CLOUDY    66  65  96 E5        29.90F FOG
APPLETON       NOT AVBL
OSHKOSH        CLOUDY    70  69  97 S3        29.89S FOG
FOND DU LAC    CLOUDY    70  68  93 S5        29.90S FOG
$$

WIZ022-050-052-221000-
EAST CENTRAL WISCONSIN

CITY           SKY/WX    TMP DP  RH WIND       PRES   REMARKS
STURGEON BAY   CLOUDY    66  64  94 E3        29.92S
MANITOWOC      NOT AVBL
SHEBOYGAN      FOG       67  66  97 CALM      29.90F VSB 1/4
$$

LMZ563-521-522-541>543-221000-
LAKESHORE

STATION/POSITION TIME  TEMP    WIND        PRES    VSBY  WAVE
                       AIR SEA DIR/SP/G                  HT/PER
                 (UTC) (F)     (DEG/KT/KT) (MB)    (MI)  (FT/S)
SHEBOYGAN LKSHOR 0800   67 63   90/  2/  2 1012.8F
KEWAUNEE LKSHORE 0800   66     150/  3/  5 1012.1F
NORTHPORT PIER   0800   65      80/  5/  7 1013.5F
N MID LAKE BUOY  0800   65 64   70/ 10/ 10 1013.1F         0
S GREEN BAY BUOY 0800   67     VRB  4      1013.7F
SISTER BAY LKSHO 0800   64        CALM       N/A
CHAMBERS ISLAND  0800   66      10/  2/  2 1013.9S
MENOMINEE LKSHOR 0800   67      30/  8/  8 1013.6F
$$


USA.gov is the U.S. government's official web portal to all federal, state and local government web resources and services.